Tracking 20719 objects as of 25-May-2020
HD Live streaming from Space Station
objects crossing your sky now

IRIDIUM 33 DEB

Track IRIDIUM 33 DEB now!
10-day predictions


NORAD ID: 34102
Int'l Code: 1997-051DM
Perigee: 730.4 km
Apogee: 890.6 km
Inclination: 86.4 °
Period: 100.9 minutes
Semi major axis: 7181 km
RCS: 0.053 m2 (small)
Launch date: September 14, 1997
Source: United States (US)
Launch site: TYURATAM MISSILE AND SPACE COMPLEX (TTMTR)

Note: This is SATELLITE DEBRIS
aabbcc
Your satellite tracking list
Your tracking list is empty




NASA's NSSDC Master Catalog

Two Line Element Set (TLE):
1 34102U 97051DM  20143.60142542 +.00000655 +00000-0 +24702-3 0  9990
2 34102 086.3756 249.1135 0111503 032.2601 031.4761 14.26526374581845
Source of the keplerian elements: AFSPC